Location: *
(41.0833°N, 73.4167°W)
Time: 19:14:37
(UTC+00:00)

USA 234 - Pass Details

Date: 22 October 2019
Orbit: 1098 x 1109 km, 123.0° (Epoch: 20 November)

Event Time Altitude Azimuth Distance (km) Brightness Sun altitude
Rises 08:52:50 0° 118° (ESE) 3,907 6.9 -27.0°
Reaches altitude 10° 08:55:20 10° 115° (ESE) 2,953 6.2 -26.5°
Maximum altitude 09:01:45 63° 36° (NE) 1,220 3.6 -25.3°
Enters shadow 09:05:54 23° 323° (NW) 2,136 4.5 -24.5°
